Pagina principale
METAR-TAF:

METAR-TAF

Aeroporti :

Dobbiaco, Italia

latitudine: 46-44N, longitudine: 012-13E, altezza: 1222 m

Osservazione

Il bollettino è stato emesso 7 ore e 11 minuti fa, alle 17:55 UTC
Vento 2 kt da nord-ovest
Temperature 0°C
Umidità 80%
Pressione 1002 hPa
Visibilità 10 km o più
Cielo coperto ad un'altezza di 2000 ft

METAR: LIVD 161755Z 32002KT 9999 OVC020 M00/M03 Q1002 RMK OVC VIS MIN 9999

Ora: 02:06 (01:06 UTC)


TAF: mancante

Osservazioni e previsioni meteorologiche di più di 4000 aeroporti (messaggi METAR e TAF).

Le stazioni disponibili sono rappresentate dai dischi gialli e rossi sulla carta.

Puntare il mouse per vedere il nome della stazione.

Clicca sopra per visualizzare le osservazioni e previsioni meteorologiche.

Per cambiare la mappa : fare clic sui pulsanti verdi con una croce nera per ingrandire, il pulsante verde con un trattino per diminuire, o sulla freccia verde per le mappe adiacenti.


METAR-TAF: